www.pogodaiklimat.ru

Погода и климат >> Архив погоды >> Россия >> Воронежская область >> Калач


ПОГОДА в Калаче

  • Прогноз погоды в Калаче
  • Монитор погоды в Калаче

АРХИВ ПОГОДЫ в Калаче

Время (UTC), дата Ветер
(напр.,м/с)
 
Видим.   Явления Облачность Т
(С)
Тd
(С)
f
(%)
Тe
(С)
Тes
(С)
Комфортность P
(гПа)
Po
(гПа)
Тmin
(С)
Tmax
(С)
R
(мм)
R24
(мм)
S
(см)
18 11.08 З 1 10 км 3/3 300 м
[Cb calv Ci fib]
+14.5 +10.9 79 +15 +15 1014.2 1003.3
21 11.08 штиль 0 10 км 10/10 800 м
[Sc]
+12.8 +11.9 94 +12 +12 1014.9 1003.9
00 12.08 СЗ 1 10 км ясно +11.2 +10.5 95 +11 +11 1015.4 1004.3
03 12.08 штиль 0 10 км 3/0 2000 м
[Ac cast]
+10.0 +9.6 97 +9 +10 1016.5 1005.4 +9.5
06 12.08 С 2 20 км ясно +19.0 +10.9 59 +20 +28 1017.1 1006.3
09 12.08 СЗ 3 20 км 1/1 600 м
[Cu hum]
+22.0 +9.4 45 +24 +34 комфорт 1017.1 1006.4
12 12.08 С 3 20 км ясно +23.6 +7.1 35 +24 +32 комфорт 1017.2 1006.5
15 12.08 С 3 20 км 3/0
[Ci fib]
+23.4 +3.5 27 +23 +24 комфорт 1017.2 1006.5 +24.6
18 12.08 З 1 10 км 1/0
[Ci fib]
+14.8 +10.2 74 +15 +15 1017.8 1006.8
21 12.08 штиль 0 10 км ясно +11.4 +10.6 95 +11 +11 1018.8 1007.6
00 13.08 штиль 0 10 км ясно +9.8 +9.4 97 +9 +9 1019.3 1008.1
03 13.08 штиль 0 10 км 4/0 2000 м
[Ac cast Ci fib]
+8.9 +8.7 99 +8 +8 1019.7 1008.5 +8.9
06 13.08 штиль 0 20 км ясно +19.5 +11.5 60 +21 +31 комфорт 1019.5 1008.7 +8.7
09 13.08 ЮЗ 1 20 км ясно +25.4 +11.3 41 +27 +43 жарко 1017.8 1007.2
12 13.08 С 3 20 км 6/3 600 м
[Cu hum Ci fib]
+26.9 +10.9 37 +28 +33 жарко 1016.8 1006.3
15 13.08 С 1
{10}
20 км 8/0
[Ci]
+26.5 +12.2 41 +28 +29 жарко 1016.1 1005.6 +28.1
18 13.08 ЮЗ 2 10 км 3/0
[Ci fib]
+18.4 +16.1 86 +20 +20 1016.5 1005.7
21 13.08 штиль 0 10 км 8/0
[Cs]
+15.6 +14.4 93 +15 +15 1016.7 1005.8
00 14.08 штиль 0 10 км 8/0
[Cs]
+16.0 +15.1 94 +16 +16 1016.1 1005.2
03 14.08 штиль 0 10 км 4/0
[Cs]
+15.5 +13.9 90 +15 +16 1016.0 1005.1 +14.4
06 14.08 ЮЗ 3 20 км 3/0
[Cs]
+24.2 +14.9 56 +27 +33 жарко 1014.4 1003.8
09 14.08 ЮЗ 5 20 км 3/0
[Cs]
+29.7 +15.0 41 +32 +39 душно 1014.3 1003.9
12 14.08 ЮЗ 5 20 км 4/0
[Cs]
+31.4 +16.1 40 +34 +39 душно 1013.0 1002.7
15 14.08 ЮЗ 4 20 км 3/0
[Cs]
+30.5 +15.5 40 +33 +34 душно 1012.7 1002.3 +32.4
18 14.08 Ю 1 10 км ясно +23.7 +17.6 69 +28 +28 душно 1013.6 1003.0
21 14.08 штиль 0 10 км ясно +19.1 +17.1 88 +21 +21 комфорт 1014.0 1003.3
00 15.08 штиль 0 10 км ясно +16.8 +16.1 96 +17 +17 1014.1 1003.2
03 15.08 штиль 0 10 км ясно +15.5 +15.0 97 +15 +16 1014.5 1003.6 +14.9
06 15.08 Ю 1 20 км ясно +25.7 +18.3 64 +30 +39 душно 1013.8 1003.3
09 15.08 ЮВ 4 20 км ясно +30.8 +12.2 32 +31 +41 жарко 1013.3 1002.9
12 15.08 ЮВ 4 20 км ясно +32.0 +14.8 35 +34 +40 душно 1011.9 1001.6
15 15.08 ЮВ 3 20 км 3/0
[Ci fib]
+31.2 +15.2 38 +34 +34 душно 1010.7 1000.4 +33.0
18 15.08 В 1 10 км 9/0
[Ci]
+25.2 +17.4 62 +29 +29 душно 1011.0 1000.5
21 15.08 штиль 0 10 км 9/0
[Ci]
+19.7 +18.3 92 +22 +22 комфорт 1010.7 1000.0
00 16.08 штиль 0 10 км 9/0
[Ac cast Cs]
+18.8 +18.3 97 +20 +20 1010.7 1000.0
03 16.08 В 1 10 км 9/0 2000 м
[Ac cast Cs]
+19.0 +17.0 88 +22 +22 комфорт 1010.6 999.9 +17.7
06 16.08 Ю 3 20 км 8/0
[Cs]
+26.4 +10.6 37 +27 +32 жарко 1010.0 999.5
09 16.08 Ю 3 20 км 9/0
[Cs]
+28.2 +10.6 33 +29 +38 жарко 1009.1 998.7
12 16.08 ЮВ 2 20 км 10/8 600 м
[Sc Ac und]
+27.4 +14.7 46 +30 +30 жарко 1008.2 997.8
15 16.08 Ю 1 20 км 10/10 600 м
[Sc]
+26.0 +11.9 41 +27 +27 жарко 1008.1 997.6 +29.0
18 16.08 штиль 0 10 км 10/10 800 м
[Sc]
+21.1 +16.0 73 +24 +24 комфорт 1008.0 997.3
21 16.08 штиль 0 10 км 10/10 800 м
[Sc]
+19.6 +16.3 81 +22 +22 комфорт 1007.3 996.6
00 17.08 штиль 0 10 км 10/10 600 м
[Sc]
+18.2 +16.9 92 +19 +19 1007.5 996.8
03 17.08 штиль 0 10 км 10/10 600 м
[Sc]
+18.4 +17.4 94 +19 +19 1007.8 997.1 +17.9
06 17.08 штиль 0 10 км в посл. час ливневой дождь 10/10 300 м
[Cb calv]
+19.2 +18.2 94 +21 +21 комфорт 1008.8 998.1
09 17.08 Ю 1 20 км 10/10 800 м
[Sc]
+25.3 +14.8 52 +28 +28 жарко 1008.5 998.0
12 17.08 СВ 1 10 км в посл. час ливневой дождь 10/10 300 м
[Cb calv]
+23.3 +19.2 78 +30 +30 очень
душно
1008.5 998.0
15 17.08 ЮВ 1 10 км 6/3 600 м
[Sc Ac lent]
+24.0 +11.4 45 +25 +26 комфорт 1008.0 997.5 +26.5 2
18 17.08 штиль 0 10 км 4/0
[Cs]
+17.0 +15.8 93 +17 +17 1008.4 997.6
21 17.08 штиль 0 10 км ясно +14.8 +14.4 97 +14 +14 1008.8 997.9
00 18.08 штиль 0 10 км 3/0
[Ci fib]
+13.4 +13.0 97 +13 +13 1009.7 998.7
03 18.08 ЮВ 1 10 км 9/3 600 м
[Sc As op Cc]
+13.8 +13.4 97 +14 +14 1010.3 999.4 +12.9
06 18.08 Ю 1 10 км 8/0
[Cc]
+21.0 +17.8 82 +26 +33 душно 1010.4 999.8
09 18.08 Ю 3 20 км 3/3 600 м
[Cu med, cong Cs]
+26.4 +17.9 60 +31 +39 душно 1010.4 999.9
12 18.08 З 1 20 км 10/3 600 м
[Sc As op]
+27.1 +18.2 58 +32 +33 очень
душно
1010.8 1000.4

 

Местоположение метеостанции Калач (Воронежская область, Россия): широта 50.42 долгота 41.05 высота над уровнем моря 92 м.

В архиве по умолчанию представлена погода в Калаче за последнюю неделю. Архивные данные за месяц целиком и за предыдущие месяцы, начиная с января 2011 года, Вы можете получить, выбрав интересующий диапазон дат из раскрывающегося списка и нажав кнопку "Ввод!".


*Определитесь, кто Вы:
робот инопланетянин человек

Внимание! Время в таблицах - всемирное. Для получения местного времени необходимо прибавить поправку, которая равна 3 ч.

Смотрите также архив погоды в соседних городах и на ближайших метеорологических станциях:

Погода в Павловск (Воронежская область, Россия) (41 км)
Погода в Богучаре (Воронежская область, Россия) (64 км)
Погода в Казанской (Ростовская область, Россия) (69 км)
Погода в Каменной Степи (Воронежская область, Россия) (74 км)
Погода в Урюпинске (Волгоградская область, Россия) (79 км)
Погода в Новоаннинском (Волгоградская область, Россия) (116 км)
Погода в Анне (Воронежская область, Россия) (126 км)
Погода в Лисках (Воронежская область, Россия) (127 км)
Погода в Борисоглебске (Воронежская область, Россия) (128 км)
Погода в Чертково (Ростовская область, Россия) (132 км)

Пояснения к столбцам:

Ветер - указаны скорость ветра в м/с - средняя за 10 мин, порывы в срок и между сроками (в фигурных скобках) и направление, откуда дует ветер: С - северный, СВ - северо-восточный, В - восточный, ЮВ - юго-восточный, Ю - южный, ЮЗ - юго-западный, З - западный, СЗ - северо-западный.
Видимость - горизонтальная дальность видимости в метрах или километрах. При видимости от 1 до 10 км при отсутствии осадков обычно наблюдается дымка, при ухудшении видимости до 1 км и менее - туман. В сухую погоду видимость может ухудшаться дымом, пылью или мглою.
Явления - указаны атмосферные явления, наблюдавшиеся в срок или в последний час перед сроком; фигурными скобками обозначены явления, наблюдавшиеся между сроками (за 1-3 часа до срока); квадратными скобками обозначены град или гололедные отложения с указанием их диаметра в мм.
Облачность - указаны через наклонную черту общая и нижняя облачность в баллах и высота нижней границы облаков в метрах; квадратными скобками обозначены формы облаков: Ci - перистые, Cs - перисто-слоистые, Cc - перисто-кучевые, Ac - высококучевые, As - высокослоистые, Sc - слоисто-кучевые, Ns - слоисто-дождевые, Cu - кучевые, Cb - кучево-дождевые. Подробнее классификацию облаков см. в Атласе облаков (PDF).
T - Температура воздуха - температура, измеренная на высоте 2 м над землей.
Td - Температура точки росы - температура, при понижении до которой содержащийся в воздухе водяной пар достигнет насыщения.
f - Относительная влажность воздуха - влажноcть воздуха, измеренная на высоте 2 м над землей.
Te - Эффективная температура - температура, которую ощущает одетый по сезону человек в тени. Характеристика душности погоды. При расчете учитывается влияние влажности воздуха и скорости ветра на теплоощущения человека.
Tes - Эффективная температура на солнце - температура, которую ощущает человек, с поправкой на солнечный нагрев. Характеристика знойности погоды. Зависит от высоты солнца над горизонтом, облачности и скорости ветра. Ночью, в пасмурную погоду, а также при ветре 12 м/с и более поправка равна нулю.
P - Атмосферное давление - приведенное к уровню моря атмосферное давление.
Po - Атмосферное давление - измеренное на уровне метеостанции атмосферное давление.
Tmin - Минимальная температура - минимум температуры воздуха на высоте 2 м над землей.
Tmax - Максимальная температура - максимум температуры воздуха на высоте 2 м над землей.
R - Количество осадков - Количество выпавших осадков за период времени, мм. При наведении курсора мыши на число - период времени, за который выпало указанное количество осадков.
R24 - Количество осадков - Количество выпавших осадков за 24 часа, мм.
S - Снежный покров - Высота снежного покрова, см. При наведении курсора мыши на число - состояние снежного покрова и степень покрытия местности в баллах.